Flag Weather past 2 weeks in Khartoum, Sudan

Now
N/A

Clear.


Feels Like: N/A
Forecast: 76 / 95 °F
Wind: 12 mph from North

Location: Khartoum Airport

Current Time: Nov 21, 2014 at 12:12:52 AM

Latest Report: Nov 20, 2014 at 11:30 PM


Visibility: 10 mi

Pressure: 29.92 "Hg

Humidity: N/A

Dew point: N/A

Location of KhartoumLocation

Historic Weather in Khartoum — Graph

°F

Khartoum temperature yesterday

Maximum temperature yesterday: 97 °F (at 4:00 PM)
Minimum temperature yesterday: 77 °F (at 5:00 AM)
Average temperature yesterday: 85 °F

Past Weeks' High & Low Weather Summary

 TemperatureHumidityPressure
High100 °F (Nov 10, 4:00 PM)40% (Nov 11, 9:00 AM)30.01 "Hg (Nov 11, 9:00 AM)
Low73 °F (Nov 6, 6:00 AM)10% (Nov 15, 6:00 PM)29.74 "Hg (Nov 13, 3:00 PM)
Average86 °F21%29.87 "Hg
* Reported Nov 5 10:00 PM — Nov 20 10:30 PM, Khartoum, Weather by CustomWeather, © 2014

Note: Actual official high and low records may vary slightly from our data, if they occured in-between our weather recording intervals... More about our weather records

Advertising

Khartoum weather history for previous 24 hours

 ConditionsComfort  
Time TempWeatherWind HumidityBarometerVisibility
10:30 PM
Nov 20
N/AClear.10 mphN/A29.92 "Hg10 mi
10:00 PM86 °FClear.8 mph20%29.92 "Hg10 mi
7:00 PM91 °FClear.5 mph18%29.86 "Hg10 mi
6:30 PMN/AClear.6 mphN/A29.83 "Hg10 mi
6:00 PM95 °FSunny.6 mph13%29.83 "Hg10 mi
5:30 PMN/ASunny.6 mphN/A29.83 "Hg10 mi
5:00 PM97 °FSunny.7 mph16%29.83 "Hg10 mi
4:30 PMN/ASunny.No windN/A29.83 "Hg10 mi
4:00 PM97 °FSunny.5 mph16%29.83 "Hg10 mi
12:00 PM91 °FSunny.8 mph18%29.92 "Hg10 mi
11:00 AM88 °FSunny.12 mph19%29.92 "Hg10 mi
10:00 AM82 °FSunny.13 mph25%29.95 "Hg10 mi
9:00 AM81 °FSunny.10 mph28%29.92 "Hg10 mi
8:30 AMN/ASunny.10 mphN/A29.92 "Hg10 mi
8:00 AM77 °FSunny.6 mph36%29.92 "Hg10 mi
7:30 AMN/ASunny.6 mphN/A29.92 "Hg10 mi
7:00 AM77 °FSunny.9 mph36%29.89 "Hg10 mi
6:30 AMN/AClear.12 mphN/A29.89 "Hg10 mi
6:00 AM77 °FClear.12 mph30%29.89 "Hg10 mi
5:30 AMN/AClear.10 mphN/A29.89 "Hg10 mi
5:00 AM77 °FClear.10 mph36%29.89 "Hg10 mi
4:00 AM79 °FClear.10 mph32%29.86 "Hg10 mi
2:30 AMN/AClear.9 mphN/A29.89 "Hg10 mi
2:00 AM81 °FClear.9 mph30%29.89 "Hg10 mi
1:30 AMN/AClear.9 mphN/A29.89 "Hg10 mi
1:00 AM82 °FClear.9 mph28%29.89 "Hg10 mi
12:30 AMN/AClear.12 mphN/A29.89 "Hg10 mi
12:00 AM84 °FClear.12 mph31%29.89 "Hg10 mi
Weather by CustomWeather, © 2014

See weather overviewHow to use our weather pages